INTELSAT 901 (IS-901)

Last updated on Jan. 24, 2020, 4:41 a.m. UTC

1 26824U 01024A   20023.52568674  .00000003  00000-0  00000-0 0  9992
2 26824   1.5646  91.6256 0001616 301.6849 175.3029  0.99382879 68253
UTC
Height (km)
Latitude
Longitude
Inclination
Orbital Period
UTC large
Height (km)
Speed (km/s)
/
Latitude / Longitude
Inclination (degrees)
Orbital Period (minutes)
Azimuth
Elevation
Range (km)
Doppler Factor
iOS Compass Heading
iOS Angle

Next 30 passes for location: Hong Kong

Rise time Rise Azimuth (degrees) Set time Set Azimuth (degrees) Duration Max altitude (degrees)

No matching passes for this satellites